Observer details:
118 Modra.  Observers L. Kornos, J. Toth.  0.6-m f/5.5 reflector + CCD.
151 Eschenberg Observatory, Winterthur.  Observer M. Griesser.  0.40-m f/5.8
    Hypergraph + CCD.
157 Frasso Sabino.  Observers R. Haver, F. Anzellini.  0.20-m f/6.3
    Schmidt-Cassegrain + CCD.
159 Monte Agliale.  Observer M. M. M. Santangelo.  0.51-m f/4.5 reflector
    + CCD.
170 Observatorio de Begues.  Observer J. Manteca.  0.31-m f/6.3
    Schmidt-Cassegrain + CCD.
213 Observatorio Montcabre.  Observer R. Naves N.  Measurer M. Campas.  0.25-m
    f/3.3 Schmidt-Cassegrain + CCD.
235 CAST Observatory, Talmassons.  Observers R. Ligustri, P. Beltrame,
    V. Savani, G. Degano, G. Romano.  0.35-m f/3.5 reflector + CCD.
349 Ageo.  Observer K. Kadota.  0.18-m f/5.5 reflector + CCD, 0.25-m f/5.0
    reflector + CCD.
458 Guadarrama Observatory.  Observer D. Rodriguez.  0.20-m f/4 reflector
    + CCD.
613 Heisingen.  Observer H. Denzau.  0.35-m f/5.7 reflector + CCD.
704 Lincoln Laboratory ETS, New Mexico.  Observers M. Blythe, F. Shelly,
    M. Bezpalko, R. Huber, L. Manguso, S. Adams, D. Torres, T. Brothers,
    S. Partridge.  Measurers J. Stuart, R. Sayer, J. B. Evans, H. Viggh.  1.0-m
    f/2.15 reflector + CCD.
762 Four Winds Observatory, Lake Leelanau.  Observer R. Elliott.  0.30-m f/10
    Schmidt-Cassegrain + CCD.
848 Tenagra Observatory, Cottage Grove.  Observers P. R. Holvorcem,
    M. Schwartz.  Measurer P. R. Holvorcem.  0.36-m f/11 Schmidt-Cassegrain
    + CCD.
A46 Lelekovice.  Observer K. Hornoch.  0.35-m f/4.7 reflector + CCD.
G78 Desert Wanderer Observatory.  Observer W. K. Y. Yeung.  0.45-m reflector
    + CCD.
J95 Great Shefford.  Observer P. Birtwhistle.  0.3-m Schmidt-Cassegrain + CCD.

Orbital elements:
    C/2002 Q5 (LINEAR)
T 2002 Nov. 19.2856 TT                                  MPC
q   1.242013             (2000.0)            P               Q
                   Peri.  133.3820      -0.2245686      -0.9319523
                   Node    33.7385      -0.9743201      +0.2196617
e   1.0            Incl.  149.1670      -0.0164092      -0.2884679
From 128 observations 2002 Aug. 28-Sept. 4.

Ephemeris:
    C/2002 Q5 (LINEAR)
Date    TT    R. A. (2000) Decl.     Delta      r     Elong.  Phase   m1    m2
2002 09 03    19 17.15   +33 45.8    1.001    1.697   115.3    32.5  15.3
2002 09 08    18 41.90   +28 55.1    1.033    1.649   107.9    35.6  15.2
2002 09 13    18 13.65   +23 55.9    1.088    1.603    99.8    38.2  15.2
2002 09 18    17 51.49   +19 13.0    1.161    1.558    91.8    40.1  15.2
2002 09 23    17 34.21   +14 58.1    1.246    1.515    84.0    41.2  15.3
2002 09 28    17 20.71   +11 14.0    1.339    1.474    76.5    41.4  15.3
2002 10 03    17 10.08   +07 59.0    1.437    1.436    69.5    40.8  15.4
2002 10 08    17 01.63   +05 09.5    1.536    1.400    62.9    39.5  15.4
2002 10 13    16 54.85   +02 41.5    1.634    1.367    56.6    37.5  15.4
2002 10 18    16 49.34   +00 31.2    1.728    1.337    50.5    35.1  15.4
2002 10 23    16 44.80   -01 24.5    1.817    1.311    44.6    32.2  15.5
2002 10 28    16 41.01   -03 08.4    1.899    1.289    39.0    29.0  15.5
2002 11 02    16 37.80   -04 42.7    1.974    1.270    33.5    25.5  15.5

Brian G. Marsden             (C) Copyright 2002 MPC           M.P.E.C. 2002-R21

Read MPEC 2002-R20 Read MPEC 2002-R22


MPEC number:

Enter an MPEC number in one of the following forms:

  • 1997-B01 (the full form)
  • J97B01 (the packed version of the full form)
  • B01 (the abbreviated form)

